Погода в Индиге

Россия / Ненецкий автономный округ     67°39′23″N   49°02′10″E
темп.,
°C
ветер,
м/с
пор.,
м/с
влажн.,
%
обл.,
%
осадки,
мм/ч
давл.,
гПа
погр.,
м
6 мая, чт
чт600:00−2св7129196 0.0 1002499
03:00−2ссв8119391 0.2 1002513
06:00−2ссв71194100 0.6 1002543
09:00−2ссв798992 0.9 1003560
12:00−1ссв6790100 0.3 1005569
15:00−1ссв668799 0.4 1007631
18:00−1ссв568499 0.1 1008594
21:00−2ссв3482100 0.1 1010249
7 мая, пт
пт700:00−2всв359396 0.0 1010296
03:00−4в479550 0.0 1010208
06:00−3в698711 0.0 1010329
09:00−1вюв8118231 0.0 1009506
12:00+1вюв10127778 0.0 1008741
15:000вюв91494100 0.9 1008588
18:000вюв91497100 2.2 1007538
21:00+1юв71197100 2.4 1007336
8 мая, сб
сб800:000юв479798 0.0 1007127
03:00+1юв479594 0.3 1007115
06:00+3ю359799 0.1 1008162
09:00+4зюз699537 0.1 1010282
12:00+5з47745 0.0 1013378
15:00+6зюз45645 0.0 1014702
18:00+6ю33725 0.0 1015454
21:00+5вюв4583100 0.0 1015106
9 мая, вс
вс900:00+3вюв71288100 0.0 1015236
03:00+4вюв8158594 0.0 1014263
06:00+6юв91578100 0.0 1011316
09:00+8вюв111870100 0.0 1008455
12:00+11юв131959100 0.1 1005938
15:00+13юв132158100 0.4 10011072
18:00+11ююв122087100 1.9 998892
21:00+10ю91869100 2.3 998665
10 мая, пн
пн1000:00+6ю10177626 0.1 999805
03:00+3ююз142189100 0.1 10011222
06:00+2юз12178893 0.1 10051042
09:00+5юз13176697 0.1 10071276
12:00+7зюз1317565 0.0 10091621
15:00+7зюз1216583 0.0 10111259
18:00+6зюз913560 0.0 10121116
21:00+5зюз714590 0.0 1011357